Flag for Brazil Weather past 2 weeks in Recife, Pernambuco, Brazil

Now
84 °F

Scattered clouds.


Feels Like: 91 °F
Forecast: N/A
Wind: 7 mph from East

Location: Recife Aeroporto

Current Time: May 3, 2015 at 6:01:24 PM

Latest Report: May 3, 2015 at 5:00 PM


Visibility: N/A

Pressure: 29.89 "Hg

Humidity: 70%

Dew point: 73 °F

Location of RecifeLocation

Historic Weather in Recife — Graph

°F

Recife temperature yesterday

Maximum temperature yesterday: 86 °F (at 8:00 AM)
Minimum temperature yesterday: 79 °F (at 3:00 AM)
Average temperature yesterday: 82 °F

Past Weeks' High & Low Weather Summary

 TemperatureHumidityPressure
High88 °F (Apr 20, 1:00 PM)100% (Apr 22, 3:00 AM)29.98 "Hg (Apr 22, 3:00 AM)
Low73 °F (Apr 21, 5:00 AM)55% (Apr 27, 1:00 PM)29.83 "Hg (Apr 18, 4:00 PM)
Average82 °F76%29.90 "Hg
* Reported Apr 18 4:00 PM — May 3 4:00 PM, Recife, Weather by CustomWeather, © 2015

Note: Actual official high and low records may vary slightly from our data, if they occured in-between our weather recording intervals... More about our weather records

Advertising

Recife weather history for previous 24 hours

 ConditionsComfort  
Time TempWeatherWind HumidityBarometerVisibility
4:00 PM
Sun, May 3
86 °FScattered clouds.9 mph66%29.86 "HgN/A
3:00 PM86 °FScattered clouds.8 mph66%29.86 "HgN/A
10:00 AM82 °FScattered showers. Broken clouds.9 mph74%29.95 "HgN/A
9:00 AM86 °FScattered clouds.12 mph66%29.95 "HgN/A
8:00 AM82 °FScattered clouds.10 mph79%29.92 "HgN/A
7:00 AM84 °FScattered clouds.12 mph70%29.89 "HgN/A
6:00 AM82 °FScattered clouds.10 mph74%29.86 "HgN/A
5:00 AM82 °FPassing clouds.8 mph79%29.86 "HgN/A
4:00 AM82 °FPartly cloudy.10 mph79%29.83 "HgN/A
3:00 AM82 °FPartly cloudy.12 mph79%29.83 "HgN/A
1:00 AM82 °FPartly cloudy.9 mph79%29.86 "HgN/A
12:00 AM82 °FPassing clouds.10 mph79%29.89 "HgN/A
11:00 PM
Sat, May 2
82 °FPartly cloudy.9 mph79%29.89 "HgN/A
10:00 PM82 °FPassing clouds.10 mph79%29.92 "HgN/A
9:00 PM82 °FPassing clouds.8 mph74%29.92 "HgN/A
8:00 PM84 °FPartly cloudy.10 mph74%29.89 "HgN/A
Weather by CustomWeather, © 2015

See weather overviewHow to use our weather pages